Theta_e
292 291 290 290 289 287 285 286 285 286 287 289 291 292 291 290 287 284 281 283 283 284 281 282 283 280 281 282 282 283 282 285 284 283 283 285 286 297 301 302 302 302 302 302 301 301 300 300 300 300 300 301 302 302 302 302 302 302 303 304 304 304 305 304 304 304 304 303 304 304 304 305 306 306
291 291 290 290 289 288 286 286 285 286 288 289 291 290 290 292 289 287 285 283 283 284 281 280 282 280 280 281 281 282 282 287 283 282 282 284 286 295 298 300 301 301 301 301 300 300 299 299 299 299 299 299 300 300 300 300 301 301 302 302 303 303 303 303 303 303 302 302 303 303 304 304 304 305
290 289 289 289 289 288 288 287 286 286 287 289 290 289 288 290 291 290 288 285 283 283 284 280 279 280 279 281 282 282 281 284 283 281 281 282 289 290 292 297 299 299 299 299 299 299 299 298 298 298 298 298 299 299 299 299 299 300 300 300 301 302 301 302 302 302 301 301 301 302 303 303 303 304
290 289 288 288 289 287 288 287 286 286 286 288 289 288 288 286 284 288 289 288 286 281 280 282 281 280 280 280 283 281 281 283 283 280 280 282 285 282 283 293 296 298 298 298 298 298 298 297 297 297 297 298 298 298 298 298 298 299 299 299 300 300 300 300 300 300 300 300 300 301 301 301 302 302
290 289 288 288 288 288 288 287 287 287 287 287 288 286 285 285 284 288 285 287 283 281 280 281 282 281 281 280 278 282 280 280 280 281 278 279 281 280 281 282 292 297 296 297 297 297 297 297 296 296 296 296 297 297 297 297 297 297 298 297 297 298 298 299 299 298 298 299 300 300 301 301 301 302
290 289 288 287 287 287 288 287 286 287 286 287 286 285 286 285 285 286 285 283 285 283 280 281 280 280 280 281 278 282 282 279 279 281 280 279 278 279 278 279 282 295 295 296 296 296 296 296 295 295 295 296 296 296 296 296 296 296 296 295 295 296 296 297 298 298 298 299 299 300 300 300 301 301
290 289 288 287 286 286 287 287 288 287 287 287 287 286 285 285 283 282 285 286 283 283 281 281 282 280 279 279 281 278 279 278 278 279 278 278 277 276 277 279 278 292 294 295 295 295 295 295 295 294 295 295 295 295 295 295 295 295 294 294 295 295 295 295 296 297 297 297 298 299 299 299 300 300
290 290 289 287 286 286 286 286 286 286 287 287 287 286 284 285 283 281 284 286 286 282 282 280 282 279 281 279 278 278 277 279 277 278 277 276 277 276 278 277 277 286 293 293 293 293 294 294 294 294 293 293 293 294 294 294 294 294 293 294 294 294 295 295 295 295 296 296 297 298 299 299 300 300
291 291 290 288 286 286 287 285 285 285 286 287 287 286 284 284 283 282 284 283 283 284 283 280 279 278 278 277 278 279 280 277 277 275 277 276 277 277 276 276 278 286 289 289 290 291 292 293 292 292 292 292 293 293 293 293 293 293 293 293 294 294 295 295 295 295 296 296 297 297 298 299 299 300
292 291 291 288 287 287 287 286 286 285 286 286 286 285 283 283 282 282 281 282 283 282 283 283 279 280 281 278 278 277 278 281 278 278 276 274 275 276 278 277 277 277 278 277 280 285 285 289 292 291 291 292 292 292 292 292 292 293 293 293 293 294 294 295 295 296 296 296 296 296 297 298 299 299
292 292 291 289 288 288 288 287 286 286 286 287 286 285 284 282 283 282 281 282 283 282 281 278 279 279 277 278 279 278 276 276 277 279 277 278 273 273 277 278 278 277 278 282 288 287 287 290 288 290 290 290 291 291 291 291 291 292 292 292 293 293 294 295 295 295 295 295 295 295 296 296 297 298
291 292 291 290 290 290 290 288 287 287 288 287 286 285 284 283 283 282 280 281 281 281 281 279 281 273 275 275 276 275 276 277 276 274 273 279 276 277 274 275 277 277 277 278 277 282 284 284 286 288 289 290 290 290 291 291 291 290 291 292 293 294 294 294 294 295 295 296 295 295 296 296 296 297
291 291 291 290 290 290 289 289 289 289 289 287 286 284 284 283 284 282 281 281 281 281 281 280 277 278 277 276 279 277 277 279 280 275 272 274 275 274 276 276 276 278 278 277 277 277 277 278 277 277 277 279 284 283 288 288 289 290 291 291 293 293 293 294 294 294 295 295 295 295 295 295 296 296
290 291 291 290 289 289 288 288 289 290 290 289 288 285 284 284 283 282 281 281 281 282 281 281 280 279 279 278 280 280 275 275 277 278 278 278 275 274 273 273 273 274 276 276 276 276 277 277 276 276 277 278 278 277 278 278 282 286 291 292 293 293 294 294 294 294 294 294 295 295 295 295 295 295
289 290 290 290 288 288 288 288 290 291 291 290 290 288 288 288 286 283 282 282 282 282 282 281 281 281 280 279 280 280 280 279 280 280 279 278 275 274 272 270 276 275 279 273 272 274 274 277 277 276 277 278 277 277 277 286 289 291 292 292 293 293 293 293 294 294 294 294 295 295 295 295 295 294
290 289 289 289 289 289 289 289 289 289 290 290 290 289 289 289 290 289 287 284 282 282 281 279 281 281 281 280 280 280 281 281 280 280 280 279 278 275 270 268 274 276 278 276 272 275 274 274 276 276 277 277 278 279 285 290 291 291 292 292 292 292 292 293 293 294 294 294 294 294 294 294 294 294
290 289 289 288 288 289 288 288 288 288 288 289 290 289 289 289 290 290 291 290 287 285 283 282 282 283 282 280 280 282 282 283 282 281 280 279 277 275 273 273 269 277 277 275 269 270 274 273 274 275 279 277 278 280 287 290 290 291 291 291 291 292 292 292 293 293 293 293 293 293 293 293 293 293
289 289 289 288 287 288 287 287 287 288 287 287 287 286 286 285 287 290 290 290 289 287 285 285 283 283 283 283 283 283 285 283 282 281 281 279 276 275 275 273 275 277 277 273 267 268 271 271 274 276 278 277 277 278 284 289 290 290 290 290 291 291 292 292 292 292 292 292 292 293 293 293 293 293
290 289 289 289 288 287 287 287 287 287 287 286 286 284 284 284 284 285 285 285 284 284 280 279 280 282 281 280 282 283 284 283 281 281 281 281 277 273 273 275 273 276 276 275 273 272 268 269 274 275 276 279 278 277 285 289 289 289 289 289 290 291 291 290 291 291 291 291 292 292 293 293 293 293
290 289 289 289 288 287 287 288 290 289 287 286 284 284 284 283 283 284 286 287 286 283 280 279 280 281 282 285 284 284 284 281 279 280 277 278 275 276 274 274 269 273 273 275 273 265 266 269 273 274 275 275 279 278 276 286 288 288 289 289 289 289 289 290 290 290 291 291 292 292 292 292 292 292
289 289 289 289 288 287 287 288 291 291 289 286 285 285 284 283 283 283 283 288 288 288 287 287 287 288 289 289 290 289 289 284 282 280 278 276 276 276 273 270 269 272 273 273 276 271 270 271 275 274 273 275 279 280 276 274 288 287 287 287 287 288 288 288 289 289 290 291 291 291 291 291 291 292
289 288 288 288 288 287 287 290 291 291 288 286 285 285 283 282 282 282 282 284 286 289 289 289 289 289 290 290 290 291 290 288 285 281 280 279 278 277 274 273 270 271 273 276 277 274 273 271 273 272 272 272 272 274 275 276 279 286 285 285 286 286 287 287 288 289 290 291 290 290 290 291 291 287
288 288 287 288 288 288 288 290 291 291 288 286 286 285 284 283 282 284 283 284 283 284 284 285 286 286 288 287 287 287 290 289 286 283 279 279 280 278 276 273 270 271 271 277 278 277 274 275 270 271 271 269 270 272 272 276 275 276 277 278 280 285 286 287 288 289 289 289 289 289 290 290 290 284
287 287 287 288 290 290 290 291 292 291 290 287 286 286 285 284 283 285 284 284 284 284 284 284 284 284 284 284 284 285 287 287 283 282 280 279 280 278 276 275 275 271 271 276 280 278 271 272 272 268 269 268 269 269 274 277 276 277 277 277 276 283 286 286 286 286 286 287 288 288 289 289 289 284
286 285 286 287 289 291 291 291 291 291 291 290 286 286 286 286 286 285 283 284 285 283 282 282 283 283 282 282 282 283 284 283 283 283 282 279 279 278 276 275 276 274 272 278 283 277 273 272 273 270 271 271 270 272 272 275 278 278 278 277 277 278 277 278 280 279 283 286 286 287 288 289 290 289
287 286 286 286 288 290 290 291 291 291 291 290 286 286 289 290 288 284 284 284 283 282 282 282 282 281 281 281 280 281 281 281 280 282 283 281 279 278 279 278 277 275 275 279 285 278 274 272 275 272 269 269 271 274 272 272 274 277 277 276 276 277 276 277 277 277 277 278 279 282 284 289 289 289
287 287 287 287 288 290 290 291 291 291 291 289 287 289 290 289 288 285 283 282 281 281 281 281 281 281 281 280 279 280 280 280 279 278 279 279 278 275 275 277 277 277 275 279 280 277 277 272 273 276 273 270 270 270 272 270 269 272 273 274 273 274 275 276 275 274 276 277 278 285 286 285 285 285
288 287 287 287 288 289 290 291 291 291 290 287 289 289 289 288 286 282 281 281 281 281 280 280 280 280 280 280 280 279 280 278 277 276 274 274 272 273 273 274 276 275 275 277 276 276 276 275 273 274 275 273 272 270 268 270 272 272 273 272 273 275 274 272 272 275 276 277 276 276 275 275 277 278
288 288 289 289 289 289 290 290 291 290 289 289 289 289 288 286 282 281 282 282 281 280 280 280 281 280 280 280 280 279 277 274 274 273 270 269 268 269 270 270 271 272 274 272 271 271 273 274 274 270 271 273 273 271 270 270 270 269 270 272 269 271 272 275 274 273 274 275 274 275 274 274 276 277
289 289 289 288 289 289 289 288 288 287 287 288 288 287 286 283 282 281 282 281 281 280 280 280 280 280 280 278 275 275 275 274 273 271 270 269 268 267 269 271 272 269 269 268 268 266 269 270 271 269 269 270 272 272 271 269 270 270 270 270 272 271 273 271 270 272 274 272 272 272 273 274 275 276
286 287 287 287 288 288 288 288 288 288 287 287 286 286 285 283 282 282 282 282 281 281 281 280 280 278 275 273 273 273 273 273 272 271 271 271 269 268 268 271 271 269 269 265 264 267 268 269 269 268 270 267 266 271 269 265 270 269 269 269 269 269 268 268 271 270 269 270 269 270 271 272 273 276
286 286 287 287 286 287 287 287 286 286 286 285 285 285 284 283 282 282 283 283 282 282 281 279 275 271 272 273 274 273 273 274 272 271 271 271 270 269 269 268 271 270 267 267 267 266 269 268 268 266 269 268 268 265 263 265 268 269 268 267 270 270 271 271 271 268 267 268 270 269 269 269 271 273
285 285 285 284 284 285 285 285 285 285 285 284 284 284 284 283 281 281 281 280 280 279 278 276 274 273 273 273 272 272 272 272 271 270 271 271 271 267 268 271 271 268 269 267 265 265 264 263 265 265 263 262 264 265 265 266 268 268 268 268 267 269 268 270 267 267 266 267 268 268 269 268 269 273
284 284 283 283 283 284 284 284 284 284 285 284 283 283 284 282 281 281 281 280 279 278 278 277 275 273 273 272 271 271 272 270 269 269 272 269 269 268 267 269 270 267 266 267 264 264 263 263 263 264 263 264 264 266 267 267 267 266 267 267 267 267 269 266 265 264 266 266 266 268 268 269 269 268
284 283 283 283 283 284 284 284 284 284 284 284 283 283 283 282 281 281 280 280 278 277 276 275 275 273 273 272 271 271 271 270 268 267 268 268 267 269 269 268 269 267 266 265 264 263 263 263 262 263 262 262 264 266 271 271 267 268 264 267 267 267 268 265 265 263 265 264 265 266 267 268 269 267
284 284 283 283 283 283 283 283 283 284 284 284 283 283 282 280 280 280 280 280 278 277 276 275 274 273 273 272 271 271 271 269 268 267 267 267 267 267 266 267 267 266 266 266 266 264 264 265 264 263 262 261 260 262 263 273 273 268 266 265 262 265 266 263 263 263 264 263 264 264 265 267 268 269
284 284 284 283 283 283 283 284 283 283 283 283 283 283 281 280 279 280 280 280 278 277 276 275 274 273 272 272 270 270 269 269 268 267 268 267 267 266 265 265 266 266 265 266 266 265 265 265 265 264 263 262 262 264 265 262 272 274 267 266 264 262 262 262 263 263 263 263 264 265 265 266 267 269
284 284 284 284 283 284 284 284 283 283 283 283 283 282 281 280 279 279 279 278 277 276 276 275 274 272 272 271 270 269 269 269 269 268 267 267 266 266 266 267 266 266 266 266 265 265 266 266 265 265 265 264 264 264 264 261 262 266 275 269 266 265 263 262 264 264 265 264 266 266 266 267 268 269
285 284 284 283 283 283 283 283 283 283 282 282 281 281 280 279 278 276 276 276 276 275 275 274 273 272 272 271 271 270 269 268 268 268 268 267 267 267 267 267 266 266 265 264 265 265 265 265 266 266 266 265 265 265 264 261 263 260 266 276 270 267 266 264 264 264 264 265 266 268 270 272 273 275
285 284 284 283 283 283 283 283 283 283 282 281 281 281 279 277 276 275 275 275 274 274 274 274 273 272 271 271 271 271 270 269 269 269 268 268 267 267 267 267 266 265 264 264 264 264 265 265 266 266 267 267 267 264 263 265 265 265 266 270 275 272 267 264 265 266 265 267 267 268 269 270 269 270
284 283 283 283 283 283 283 282 282 281 281 280 279 279 278 277 276 275 275 274 273 273 273 273 272 271 271 270 270 270 270 269 269 270 269 268 267 267 267 267 265 265 264 264 264 264 265 266 268 271 270 267 267 266 265 264 264 265 265 265 272 274 275 274 270 268 267 268 268 268 268 268 268 269
284 284 283 283 283 282 282 282 281 280 280 279 278 277 276 276 275 275 274 274 273 272 272 271 271 271 270 270 270 270 270 270 269 269 268 268 267 267 266 266 265 265 265 264 265 265 266 267 268 269 269 268 266 265 263 265 264 265 264 262 262 272 275 275 275 275 273 270 268 267 268 268 270 269
284 284 283 282 282 281 281 280 279 279 277 277 276 275 274 273 273 274 272 272 271 271 271 271 271 271 271 270 270 270 270 270 270 269 268 267 267 266 266 266 266 266 266 266 266 265 266 266 267 267 267 267 267 267 264 265 266 266 266 265 264 264 266 273 274 275 275 276 276 274 271 270 268 266
284 283 282 282 281 280 280 279 279 278 276 275 275 274 274 273 273 273 272 272 271 271 271 271 270 270 270 270 270 270 270 270 270 269 268 267 267 267 267 266 266 266 266 266 265 266 266 266 267 267 266 266 267 266 265 266 265 266 266 266 265 264 264 264 267 271 273 275 275 276 276 277 276 276
280 280 279 279 279 279 278 278 277 276 275 274 274 273 273 273 272 272 272 272 271 271 270 270 270 270 270 269 269 268 269 270 270 268 268 267 267 266 266 266 266 266 265 266 265 265 266 266 267 268 267 266 267 266 266 266 266 266 266 266 265 266 265 265 265 266 267 268 272 275 276 276 276 276
Wind_Speed
12 10 12 11 10 8 6 6 4 5 7 10 11 12 14 14 15 9 5 6 7 5 3 5 1 1 2 4 3 5 5 6 7 6 7 6 5 9 11 13 13 13 13 12 12 12 11 11 11 11 11 11 11 11 11 11 11 11 11 11 11 11 11 10 11 11 12 13 13 13 13 14 15 15
11 10 10 9 9 8 8 8 6 6 8 9 9 9 8 13 15 11 12 8 4 7 2 1 4 2 3 3 3 4 5 6 8 6 7 6 5 11 11 12 13 12 12 12 12 12 12 11 11 11 12 12 11 11 11 11 10 10 11 11 11 11 10 9 9 9 11 11 13 13 14 14 15 15
10 10 11 9 9 8 8 7 6 5 7 8 8 6 7 7 12 13 11 11 5 2 6 3 2 5 3 3 5 5 4 4 6 6 6 5 8 10 9 11 11 12 12 12 11 11 11 11 12 12 12 12 11 11 10 10 10 10 11 11 11 10 10 9 9 9 9 10 11 11 12 12 13 14
10 10 11 10 9 8 7 7 7 7 6 6 8 7 8 6 4 9 12 14 13 5 4 5 5 4 4 3 7 6 5 4 7 6 6 5 8 7 5 10 11 10 11 11 11 12 11 12 12 11 11 10 10 10 10 10 10 10 11 11 11 11 10 9 8 8 9 9 10 10 11 11 11 12
10 11 11 10 9 9 9 8 7 6 7 6 6 7 8 7 6 9 6 10 9 2 1 5 5 5 5 3 2 7 5 5 5 6 5 5 6 6 6 5 7 9 10 11 12 12 12 11 10 9 8 8 7 6 5 5 5 5 6 6 6 6 6 6 6 7 8 9 10 10 11 12 12 13
10 10 11 10 9 9 10 9 8 8 7 8 8 7 9 9 8 6 8 6 13 10 2 4 3 3 0 4 1 6 7 5 5 7 6 5 5 5 4 3 3 10 10 11 11 11 10 8 7 6 6 5 5 4 4 4 5 5 5 5 6 6 7 7 8 9 9 10 11 11 11 12 13 13
11 11 10 11 9 8 9 9 9 8 9 8 9 9 7 9 8 6 7 11 7 12 7 5 6 3 1 3 3 2 4 4 5 7 4 4 3 2 2 4 3 7 9 9 9 9 8 6 5 4 3 4 5 5 5 5 4 4 3 4 5 5 5 6 7 7 8 8 9 9 9 10 10 11
12 13 10 9 10 10 10 9 8 8 9 10 9 10 7 8 8 6 8 9 12 6 11 5 8 3 5 3 3 3 3 6 4 5 4 2 4 3 5 5 4 5 8 8 8 7 6 5 3 2 3 3 4 4 4 3 3 3 4 5 5 5 6 6 6 6 7 7 8 8 9 10 10 11
15 14 14 11 11 11 11 9 9 9 11 10 10 9 8 8 7 6 9 8 7 11 11 7 1 3 3 2 2 3 7 3 4 3 4 3 3 4 3 4 3 5 8 7 7 6 6 5 3 3 3 4 4 3 3 2 3 4 6 6 6 7 7 7 7 7 7 8 8 9 10 10 10 11
13 15 14 12 12 12 13 12 10 10 11 9 8 9 9 8 7 8 7 8 9 7 10 11 7 3 6 2 1 1 1 7 4 4 2 4 5 4 3 3 3 3 2 3 3 4 5 5 5 4 4 4 4 4 3 4 4 4 5 7 8 9 9 9 9 10 10 10 10 11 11 12 12 12
12 13 13 14 14 14 13 13 13 12 11 11 12 12 11 9 9 9 8 9 10 9 9 4 4 6 2 4 4 0 0 3 3 6 4 1 2 2 1 1 2 3 2 1 1 2 1 2 1 3 5 5 6 5 5 4 5 7 8 9 10 10 10 10 9 9 9 10 11 11 11 11 11 12
12 13 13 14 15 15 14 14 13 14 13 11 11 9 11 11 12 11 10 9 10 10 7 5 8 3 4 2 3 1 1 4 1 1 4 8 3 2 0 2 1 1 1 1 2 3 4 5 4 5 5 7 7 5 4 5 6 6 7 8 10 10 9 9 9 9 8 8 9 10 10 10 11 12
12 11 13 13 14 14 16 18 17 16 15 13 12 10 11 12 12 12 11 11 11 10 9 7 5 6 6 5 7 7 6 8 9 4 3 3 2 1 0 2 2 3 1 1 0 1 2 1 2 2 3 4 5 5 5 4 5 6 8 9 11 9 8 8 8 8 8 8 9 9 10 10 11 12
12 13 12 13 20 19 18 19 20 20 18 17 15 14 13 13 13 13 12 11 12 12 12 12 12 10 10 10 10 9 5 4 6 7 6 6 4 2 0 2 3 3 3 1 1 4 2 4 2 1 4 5 3 3 1 3 4 5 9 10 9 9 8 9 8 9 9 9 10 10 11 11 12 13
14 11 12 12 16 16 16 17 21 20 20 20 17 17 17 16 18 16 14 13 13 13 14 11 11 13 13 11 10 10 9 7 10 10 9 7 6 6 6 4 0 2 7 3 1 2 2 5 4 4 5 4 1 2 3 6 8 9 8 7 8 8 8 9 9 9 9 9 10 11 12 13 13 14
14 13 12 10 10 12 14 14 15 19 21 20 18 18 16 14 14 18 21 18 12 12 13 11 13 13 14 14 11 10 10 11 9 8 9 9 9 8 6 5 7 6 7 5 1 4 1 4 3 2 3 2 2 3 6 8 8 7 6 8 8 9 9 9 9 9 9 9 10 12 13 13 14 14
16 14 13 12 11 11 18 15 14 14 13 17 18 18 17 15 16 15 12 13 18 19 15 17 15 16 14 13 14 14 15 12 13 10 9 9 8 6 6 7 2 2 5 5 2 1 4 1 2 0 4 2 3 4 6 7 6 6 8 9 9 8 8 8 8 9 10 11 12 13 13 14 14 14
15 15 15 14 13 11 12 12 14 13 14 13 11 11 11 10 11 11 12 13 6 5 10 16 18 13 10 16 15 12 12 16 14 14 12 9 8 8 5 2 3 3 3 4 4 1 4 1 2 1 6 1 2 3 5 7 7 8 8 7 7 7 7 8 9 10 10 11 12 12 13 13 13 14
17 16 16 15 16 14 13 12 14 14 14 14 13 12 11 10 9 9 9 7 7 7 4 4 1 6 6 3 5 7 8 8 4 5 7 9 7 7 4 4 2 1 1 3 2 3 3 1 1 2 4 5 3 3 4 7 9 7 5 5 5 6 8 8 9 10 10 11 11 12 12 13 13 14
14 15 16 15 15 16 15 17 22 18 15 15 17 15 12 9 7 8 7 5 5 6 4 4 5 7 7 8 11 11 11 8 7 7 8 8 7 8 6 5 1 1 2 1 3 2 1 0 3 2 3 3 4 1 2 6 7 3 2 4 6 7 8 8 9 10 10 11 11 11 12 12 14 14
14 15 15 15 15 16 16 17 18 16 20 17 20 17 15 11 10 9 5 9 11 10 9 10 11 13 14 15 19 19 15 11 10 9 9 7 8 9 8 5 4 4 3 2 3 3 1 1 4 3 2 2 6 5 3 3 4 2 3 5 6 7 8 9 10 10 11 11 10 11 13 14 13 13
13 15 21 18 16 16 15 18 21 21 21 17 18 16 15 13 12 9 7 7 8 13 13 14 15 16 16 17 20 21 20 17 12 12 13 10 10 8 8 8 4 1 2 4 4 3 4 1 1 1 3 3 4 4 3 3 3 0 0 2 5 6 8 10 11 11 10 11 11 13 15 14 12 6
11 12 16 21 19 18 17 22 21 22 22 17 17 17 15 15 15 14 14 13 12 11 11 10 11 10 13 12 11 12 19 18 14 8 6 9 11 10 8 7 6 2 3 6 7 6 4 6 2 4 1 2 6 3 2 3 2 1 1 1 1 6 8 10 10 10 10 11 14 15 14 13 11 5
10 12 12 16 19 17 21 24 24 22 21 19 17 15 16 15 18 12 13 11 11 11 11 10 9 9 8 8 7 9 11 10 8 7 7 7 7 7 8 8 7 6 5 6 12 9 2 4 4 2 5 3 3 4 1 4 4 3 1 3 2 5 7 7 6 9 12 13 13 14 15 15 11 5
14 12 12 11 18 19 21 22 25 21 19 17 17 17 17 17 10 13 12 12 14 11 9 9 9 9 8 8 7 7 7 7 7 7 7 7 7 7 7 7 7 5 1 4 11 6 5 5 6 3 2 3 3 1 4 3 6 6 4 4 4 4 2 2 2 5 8 11 13 18 16 13 11 6
12 14 13 13 19 25 24 26 23 21 19 15 14 13 10 14 17 14 10 10 9 9 9 8 8 8 8 9 8 7 7 6 6 7 7 7 6 5 5 8 7 6 3 5 12 7 5 4 9 6 3 4 4 5 3 3 4 6 7 4 3 4 2 3 4 5 4 6 7 9 10 11 9 10
14 13 14 15 23 25 26 23 21 22 24 24 13 16 17 17 18 14 11 10 10 9 9 9 9 9 9 10 9 8 8 7 5 5 5 5 5 4 3 3 3 4 2 6 7 5 5 3 5 10 8 5 4 3 5 5 4 2 3 4 4 4 3 5 6 5 5 7 7 7 6 9 10 12
13 13 12 13 22 24 25 24 21 22 27 16 19 19 18 19 16 12 12 10 10 10 9 9 10 10 9 8 9 9 7 5 5 5 4 4 3 3 3 2 2 2 5 6 6 6 6 6 4 6 8 8 7 7 5 3 5 5 4 1 2 7 7 5 4 5 6 5 2 1 3 4 3 6
12 13 17 20 25 24 24 25 26 22 23 18 20 22 23 20 12 12 12 12 11 11 12 12 11 9 10 9 7 6 7 6 7 5 4 4 3 4 2 1 1 0 2 4 4 4 5 6 8 5 6 7 8 6 6 5 5 4 3 0 2 5 7 7 8 6 4 2 1 1 2 4 6 6
15 16 17 19 21 21 20 17 14 13 16 23 24 25 24 14 12 12 12 12 13 13 12 12 12 11 9 8 7 7 8 8 7 7 6 6 3 3 4 2 4 2 2 1 2 3 5 5 6 6 7 7 8 8 7 5 6 6 5 7 6 1 8 10 5 3 5 3 2 2 3 5 8 6
9 12 14 12 16 13 19 18 18 18 20 18 16 14 13 12 13 13 14 15 15 14 13 13 11 7 7 7 8 8 9 8 7 7 8 7 6 6 3 5 6 6 6 3 3 3 4 5 5 5 8 6 5 8 4 3 7 5 7 6 5 8 4 3 5 6 4 3 3 3 3 5 5 5
11 11 11 14 12 11 10 9 7 8 9 12 14 13 13 12 12 13 14 12 10 10 8 6 7 7 8 9 9 8 8 8 7 7 8 8 7 6 6 4 9 8 5 5 5 4 4 5 6 7 8 7 7 2 0 3 8 8 7 5 7 9 7 9 7 4 3 3 6 5 3 4 6 6
11 10 11 11 11 12 13 11 11 11 11 11 11 12 11 10 10 11 11 13 13 11 11 12 12 11 9 9 8 8 8 8 8 7 7 6 8 6 6 10 8 6 9 8 5 5 4 4 2 5 5 4 4 3 1 6 9 7 8 7 6 9 7 7 5 4 2 4 6 6 6 3 4 6
13 13 13 13 14 13 13 14 13 13 13 12 12 11 12 12 11 11 11 10 10 9 10 10 10 11 10 9 9 9 9 7 7 8 10 8 7 8 9 10 10 6 4 7 7 6 4 4 1 1 1 2 2 5 6 8 11 6 7 6 7 9 8 5 5 1 1 2 4 10 10 7 3 3
14 13 13 13 13 14 14 14 14 13 13 13 13 13 13 11 12 13 11 11 10 10 10 9 9 8 9 10 9 10 9 10 8 7 5 7 8 9 9 9 9 8 7 5 6 5 4 5 4 3 3 4 6 7 12 14 10 12 5 8 8 8 8 4 2 2 1 1 1 6 10 11 8 1
14 15 15 14 14 13 14 14 13 14 15 14 14 14 13 13 12 14 14 12 12 11 10 10 10 10 9 9 9 9 9 9 9 9 8 8 9 8 7 9 8 7 7 8 7 6 6 7 6 7 6 4 1 7 7 18 22 9 8 7 5 7 6 3 2 1 1 2 2 2 7 12 12 8
14 13 14 15 15 15 15 14 15 15 14 14 13 13 14 13 12 12 11 12 11 11 12 11 10 10 9 9 9 8 9 10 9 9 10 9 8 8 8 8 9 8 8 8 6 6 6 7 7 7 6 5 7 11 10 2 13 17 9 9 6 4 4 2 1 3 3 4 4 5 7 8 12 11
15 14 13 12 13 13 13 13 13 13 13 13 13 13 12 10 9 9 10 11 11 10 10 10 9 9 9 9 10 9 8 8 8 9 9 9 10 10 11 11 10 9 9 7 7 7 7 7 8 8 8 9 9 9 9 2 1 6 13 11 8 5 2 2 3 5 5 3 6 6 4 8 10 10
9 10 12 12 11 12 12 13 13 14 14 13 13 12 12 11 11 10 10 11 9 9 9 9 9 10 10 10 9 10 10 9 9 10 10 10 11 11 11 10 9 7 7 7 7 7 7 8 9 9 10 10 11 8 4 3 5 5 4 8 9 7 5 5 6 4 4 5 6 6 7 8 11 17
11 9 9 9 9 9 9 9 10 11 11 11 11 10 11 11 11 11 11 10 10 10 10 10 9 9 9 8 8 7 7 10 11 9 10 10 9 10 9 8 9 8 7 8 8 8 9 10 10 10 9 10 8 2 1 5 6 4 5 8 12 9 5 3 5 5 7 6 5 6 9 6 8 6
10 10 10 9 9 9 10 9 9 9 9 9 9 9 10 10 11 11 11 11 11 11 10 9 10 10 9 9 9 10 10 9 9 9 9 9 10 10 10 7 7 7 8 9 8 8 11 9 7 10 9 6 4 3 5 7 11 8 5 6 11 18 19 14 7 6 8 5 5 7 9 9 9 9
11 10 9 9 11 10 9 9 9 9 9 10 10 10 10 10 9 11 10 11 10 9 9 9 9 8 8 8 8 9 10 10 9 9 9 10 9 9 9 8 9 7 9 10 9 9 5 5 7 8 7 6 6 8 12 11 10 8 3 2 3 8 11 14 16 16 11 7 6 7 8 9 8 10
11 11 10 10 9 9 9 9 9 8 8 7 7 8 8 9 9 10 9 9 10 10 10 9 8 9 8 8 9 10 10 10 10 10 10 10 10 10 10 10 9 9 9 8 4 4 5 6 6 7 7 8 9 9 12 11 9 8 6 4 5 3 5 11 16 19 20 21 20 15 10 9 8 10
9 9 8 9 10 11 12 12 12 11 11 11 11 10 10 11 11 11 10 11 11 11 10 9 9 9 10 9 9 9 10 10 9 10 11 10 10 10 9 8 8 7 7 6 5 5 5 6 7 8 8 10 9 9 11 9 9 8 7 7 4 3 5 5 6 12 17 20 23 23 26 26 23 23
5 5 5 6 6 7 8 9 10 11 11 10 10 10 10 9 9 9 9 9 9 9 9 9 9 8 8 9 10 10 10 8 9 9 8 8 8 8 7 7 7 7 8 7 6 6 6 7 7 7 8 8 8 8 9 9 10 8 8 8 9 6 5 4 7 10 10 9 13 20 20 23 25 27
Wind_Direction
179 182 175 184 184 187 172 172 171 170 154 159 163 161 155 152 139 154 148 186 153 227 202 130 208 198 195 134 151 118 109 119 113 107 100 100 93 91 95 97 97 97 95 95 93 91 85 78 72 70 70 68 68 67 66 64 60 56 55 53 50 48 43 43 41 40 37 30 25 23 22 21 16 14
174 178 178 180 183 178 168 187 173 174 162 164 171 173 162 151 152 158 156 179 201 169 193 163 145 208 197 149 117 100 106 113 111 105 104 99 99 88 88 91 93 94 92 87 83 78 75 72 67 61 60 59 59 60 59 58 56 53 48 45 45 44 42 41 38 37 31 25 20 18 17 15 13 12
170 172 179 182 183 168 177 177 169 162 154 165 166 162 149 180 156 156 151 143 232 149 168 222 186 146 201 173 120 101 94 103 104 101 97 95 92 87 77 80 82 82 80 79 76 74 72 69 63 52 43 44 43 46 50 50 49 46 38 33 32 37 37 36 36 32 25 19 15 15 15 13 11 10
175 171 177 182 180 174 169 175 177 171 161 153 158 157 159 153 141 146 154 159 168 187 161 143 145 158 135 183 112 103 95 78 89 99 93 100 93 85 75 62 63 70 74 74 72 68 65 61 53 46 37 31 31 30 33 35 34 36 31 23 20 18 19 21 24 19 14 9 10 10 10 9 8 6
171 175 179 182 181 166 171 181 173 170 160 153 154 149 145 151 161 146 137 138 122 37 44 126 153 175 150 76 71 110 107 87 79 78 76 83 85 76 74 69 61 75 71 68 63 57 55 51 47 46 40 31 28 28 35 38 35 31 26 19 12 9 10 13 15 14 8 5 6 6 5 5 2 1
176 176 179 180 174 176 178 168 174 173 160 162 155 165 159 163 170 167 120 142 149 149 152 97 118 152 294 99 326 133 119 106 88 77 69 55 71 86 96 94 43 57 58 57 54 49 46 45 47 48 37 25 22 26 31 30 19 16 15 7 3 358 4 9 10 11 7 6 4 3 2 358 356 354
171 170 181 179 172 170 172 178 174 165 167 166 168 170 166 160 162 163 141 139 145 146 157 154 153 157 67 114 173 98 93 100 100 102 89 105 98 97 108 71 41 30 45 46 43 40 36 37 41 31 25 24 21 6 11 3 3 1 352 346 350 358 10 8 12 10 8 3 1 1 356 351 348 348
171 173 175 179 172 171 174 172 164 169 163 168 171 165 167 155 154 157 145 152 142 152 138 180 157 171 117 75 90 104 83 101 86 114 131 111 77 60 50 55 36 9 27 29 30 24 30 40 36 26 14 3 352 352 349 348 345 328 329 337 341 357 0 1 0 3 4 1 359 354 348 346 344 343
176 173 179 176 171 171 170 168 167 167 170 170 162 161 158 156 148 139 143 131 133 147 150 137 137 131 79 103 119 135 121 93 82 61 78 79 69 54 39 49 21 14 15 28 27 21 22 16 14 4 349 335 337 337 320 302 309 316 329 338 339 341 344 345 345 348 350 350 347 343 342 340 338 336
178 176 175 168 173 174 173 177 172 169 166 154 157 157 157 149 142 129 124 125 131 137 144 147 130 135 135 102 78 263 145 133 106 77 45 41 24 33 16 352 354 357 33 12 8 25 18 14 353 337 322 316 308 282 272 283 303 323 331 334 337 337 338 338 337 336 336 338 338 338 337 334 333 332
183 178 171 169 175 181 180 169 168 168 167 168 172 167 158 151 144 130 130 132 134 141 134 91 103 113 56 119 145 139 64 104 140 137 103 65 328 26 89 335 339 358 357 348 24 27 23 316 298 314 302 284 266 254 266 299 330 343 339 336 328 321 318 319 320 323 328 332 332 328 322 319 318 321
182 178 174 174 179 184 181 174 169 167 172 169 167 171 154 158 148 140 135 132 138 141 143 140 148 129 131 77 73 97 110 85 42 94 134 166 200 240 305 216 203 307 34 342 341 21 30 7 340 314 299 282 269 276 304 315 327 328 322 309 302 302 312 318 319 319 313 307 304 304 305 307 312 318
182 181 176 179 183 187 182 176 167 175 174 167 167 173 166 164 153 143 142 146 145 145 143 129 116 125 130 160 145 162 179 189 171 169 102 139 202 141 11 294 243 214 137 281 357 293 151 129 270 243 268 267 270 289 291 313 315 302 292 289 284 296 304 304 304 303 299 299 302 306 312 315 319 322
178 184 180 183 183 184 179 174 174 174 175 178 178 172 171 165 154 152 149 153 157 154 160 164 160 159 177 178 181 173 194 142 114 129 140 152 192 105 338 315 269 212 154 121 278 264 188 148 210 211 223 247 224 249 289 262 244 255 261 270 284 289 291 295 296 297 301 305 309 316 320 324 326 328
179 186 188 179 182 181 177 177 177 175 181 183 176 178 185 177 162 156 157 163 160 166 169 165 167 175 173 187 180 180 165 167 165 164 164 158 147 165 155 187 301 239 156 151 156 294 231 145 181 216 224 244 259 237 236 248 252 253 270 286 289 296 301 304 305 305 305 309 314 319 324 327 328 330
178 179 180 179 174 180 183 178 178 180 181 180 175 176 187 189 180 172 166 161 165 169 158 166 186 171 184 179 176 174 165 171 162 164 164 175 169 168 179 178 181 213 149 143 116 273 271 129 156 250 242 208 224 238 239 251 260 276 296 302 305 305 304 305 307 310 315 322 326 326 326 326 327 327
176 175 177 170 173 185 183 174 172 173 179 180 173 173 182 186 181 184 191 187 175 168 164 177 180 188 174 171 194 185 176 160 164 163 175 185 181 178 164 185 196 184 169 108 97 236 271 95 119 230 260 200 216 241 257 269 283 300 308 302 296 298 303 307 318 327 331 331 329 327 323 323 323 321
178 177 175 173 172 176 179 179 172 172 171 170 166 169 178 183 186 184 188 192 219 231 192 174 182 193 171 185 185 182 158 161 173 174 185 171 168 170 186 197 145 176 168 143 146 61 300 1 107 308 283 291 281 254 257 268 283 300 293 288 293 299 311 326 330 328 324 322 321 317 315 312 311 312
179 179 179 177 172 171 177 179 176 170 171 166 165 166 173 177 181 177 183 187 186 178 189 214 198 159 163 112 129 150 163 160 141 152 160 162 150 117 106 48 23 49 276 120 102 178 268 330 77 256 270 295 278 238 260 271 278 269 266 280 301 318 324 322 316 316 315 314 312 308 307 306 305 305
181 179 176 174 172 171 177 180 177 172 164 164 164 170 174 176 176 190 187 159 154 163 152 143 148 160 171 153 150 156 155 141 121 110 96 95 108 120 128 169 235 196 277 146 120 93 302 282 157 258 271 299 281 209 229 256 246 245 297 335 329 319 314 311 312 310 309 306 301 301 301 300 298 298
180 180 178 173 171 172 179 175 170 163 163 169 172 173 175 176 173 181 165 156 153 153 148 153 147 148 157 154 154 154 150 146 141 128 122 158 149 145 158 184 157 221 194 252 124 106 304 255 181 266 294 284 286 289 273 258 229 143 351 333 326 319 315 309 307 303 300 299 300 300 296 293 291 292
178 181 178 175 170 172 177 171 171 165 166 169 175 175 170 170 181 180 161 148 156 152 149 149 152 154 153 154 158 161 160 154 153 156 175 172 151 175 179 166 147 185 193 205 147 108 233 187 124 95 304 349 285 288 275 238 235 113 328 326 319 311 299 297 296 299 298 299 298 295 291 288 292 294
175 177 182 177 174 174 168 168 170 166 171 173 176 177 172 179 188 190 170 163 154 157 150 151 147 151 153 153 156 166 166 169 172 173 142 142 164 171 176 140 117 87 270 224 167 162 238 149 229 125 56 326 281 260 236 223 235 227 222 249 262 282 288 288 292 298 304 297 292 288 286 290 295 287
179 178 178 185 177 163 163 167 170 171 173 177 178 173 181 180 199 175 165 167 159 155 150 144 144 146 147 149 153 165 172 172 169 169 149 163 169 163 154 167 166 166 204 193 169 181 222 156 187 176 161 140 266 289 316 280 258 261 251 278 262 249 260 277 293 296 295 289 285 288 289 287 289 280
172 176 181 178 180 165 164 166 172 172 176 173 175 177 185 195 166 129 151 156 151 146 140 141 144 149 150 153 156 167 170 174 165 169 166 164 174 160 154 161 196 229 225 199 164 163 174 166 182 155 218 158 221 220 287 280 289 281 247 208 226 257 251 263 277 284 274 280 290 289 289 281 290 300
177 177 177 181 182 175 170 173 170 169 169 158 168 181 138 118 127 142 140 137 135 137 137 145 151 154 162 162 166 171 177 182 169 169 174 171 172 175 161 169 179 202 216 205 185 184 138 176 179 168 187 173 252 203 245 279 262 264 272 267 224 250 231 291 286 269 265 271 277 275 268 290 331 325
183 179 182 184 180 178 175 173 166 168 171 176 170 150 137 135 124 124 138 136 139 141 150 157 167 173 173 174 176 179 186 185 157 157 160 156 153 150 145 160 177 197 177 185 201 182 179 206 179 185 198 181 172 207 211 222 273 252 262 264 279 275 265 255 241 231 259 266 268 281 345 356 331 320
180 180 182 177 178 179 178 174 166 168 175 169 157 145 137 135 134 131 139 147 153 154 158 172 180 186 184 174 180 187 179 156 138 124 114 118 125 142 160 181 204 163 160 183 192 189 191 205 223 206 185 188 192 196 220 234 209 204 212 285 266 280 267 231 238 255 257 251 253 343 3 318 278 269
182 182 177 173 176 179 178 175 175 175 173 152 152 150 149 148 145 151 156 160 158 166 181 188 189 187 189 185 166 137 126 111 104 106 86 73 70 74 85 77 100 115 165 182 185 200 195 207 223 225 210 195 198 214 176 211 173 225 203 233 270 248 266 275 264 240 229 212 231 279 285 278 284 259
173 170 168 168 174 176 176 170 171 171 173 168 166 162 157 157 158 159 158 161 171 184 184 185 190 190 177 163 136 125 126 138 158 152 145 132 117 114 132 165 253 294 313 283 214 210 207 215 218 210 223 225 205 221 217 211 241 228 227 217 240 262 249 247 243 278 301 275 219 248 255 259 265 269
149 155 159 164 170 173 175 177 176 173 172 169 165 161 164 165 167 170 172 172 178 182 183 188 187 166 145 119 128 148 152 158 160 160 153 158 163 146 147 177 230 242 254 281 280 257 228 224 218 198 224 237 234 227 230 173 243 226 239 237 229 238 235 253 284 270 273 287 285 262 253 263 270 268
146 147 151 155 161 161 164 166 156 159 168 172 171 173 174 173 172 173 171 167 173 176 168 144 117 115 146 163 164 150 156 161 155 156 159 166 166 160 148 173 228 224 237 248 254 255 240 222 217 224 221 211 220 263 79 219 240 246 249 226 236 256 255 264 263 260 253 315 314 295 261 261 280 280
136 136 147 156 162 167 167 168 172 172 171 177 181 175 172 166 165 168 171 175 177 167 156 164 165 164 160 161 159 153 154 167 159 161 159 163 163 160 173 209 217 200 218 227 220 237 235 232 235 205 196 206 198 185 194 278 254 229 245 235 224 253 261 252 245 257 313 349 292 288 289 256 247 273
147 157 161 169 170 172 173 177 177 176 177 175 176 183 178 172 175 179 178 171 164 159 169 164 164 167 161 158 162 164 165 147 151 164 172 168 160 166 193 208 224 214 219 220 204 211 218 227 233 326 353 318 267 201 196 223 255 236 220 241 224 252 250 240 260 243 30 256 304 311 307 295 253 248
162 164 169 175 178 179 178 179 178 174 175 179 180 182 182 179 177 178 175 172 162 163 165 165 166 160 167 165 163 166 167 161 155 149 160 148 168 189 193 206 219 210 211 214 218 224 191 197 179 221 318 329 315 278 213 212 236 242 221 234 235 240 255 224 243 288 220 294 356 296 298 295 297 228
173 176 176 174 179 178 179 183 177 177 182 182 181 178 178 184 183 179 183 171 162 165 164 165 168 169 170 166 167 165 160 156 156 163 166 176 183 194 191 210 212 212 204 212 212 206 193 198 175 181 213 250 302 300 303 221 210 209 205 242 217 219 241 233 249 215 195 266 238 237 278 295 299 308
181 181 182 181 180 179 184 179 180 184 182 180 180 181 184 182 183 183 171 155 164 171 173 167 173 173 169 164 160 162 159 161 166 170 180 183 184 185 195 212 212 209 201 215 188 200 186 193 191 185 195 219 229 247 252 357 217 212 189 224 234 203 206 216 219 270 227 197 241 224 246 271 288 295
186 186 186 184 182 183 181 178 178 179 181 181 181 180 181 173 163 163 157 165 171 167 168 173 170 167 169 166 163 164 163 169 163 170 184 176 182 196 202 209 209 202 205 198 192 200 195 191 199 199 191 211 231 246 270 298 23 245 209 202 222 229 167 198 253 243 264 227 232 247 247 268 274 285
186 182 186 184 182 181 182 181 179 180 181 178 180 178 171 163 160 158 163 170 166 166 170 171 175 173 168 174 173 165 166 169 180 188 184 191 195 198 202 205 208 200 185 204 197 200 198 207 208 205 204 206 214 223 206 239 245 250 270 208 199 225 230 190 231 246 240 261 260 257 241 246 261 268
189 181 181 174 172 173 179 174 179 180 176 179 175 169 165 163 162 163 164 165 168 172 175 180 169 165 173 169 165 160 168 182 189 189 191 194 196 200 201 200 204 193 190 205 200 207 205 215 211 210 214 223 240 281 264 252 253 228 242 267 257 248 218 174 236 260 272 252 260 277 280 277 272 269
178 173 179 175 170 174 175 174 172 165 169 165 161 163 163 159 161 171 173 169 168 171 176 174 173 175 170 163 167 171 181 189 192 195 193 194 193 197 196 180 200 191 197 219 209 207 217 217 215 225 224 243 263 334 314 275 260 249 230 238 224 238 249 248 233 224 250 254 255 262 274 281 288 288
184 182 171 171 174 173 170 167 165 165 164 163 163 162 160 161 165 153 156 163 165 169 170 172 172 165 163 165 169 177 187 191 190 194 192 191 194 196 192 192 203 195 200 220 213 219 209 180 198 212 223 209 206 221 237 242 255 264 239 220 269 247 246 253 254 253 247 229 232 258 273 283 277 273
187 184 178 174 165 159 158 153 151 151 145 144 153 154 151 151 154 159 163 163 168 170 175 172 168 168 169 170 176 184 190 198 194 193 191 194 193 192 195 202 205 200 206 224 211 186 190 192 192 201 206 208 215 218 238 242 250 259 262 240 240 243 251 255 262 262 261 259 256 255 249 259 272 271
188 180 174 170 168 167 165 163 162 162 160 161 161 161 167 166 172 174 172 173 173 178 176 171 172 173 177 177 176 184 197 199 190 188 192 193 195 198 198 194 193 199 201 207 207 201 191 193 200 193 199 216 208 216 237 243 251 248 254 259 250 221 253 259 258 258 260 258 258 257 258 257 258 263
122 121 129 138 149 152 157 158 155 154 154 155 160 167 168 171 173 171 173 174 175 173 172 173 169 172 170 168 173 188 198 189 187 191 185 183 187 191 190 189 190 195 200 195 193 211 198 198 206 200 212 218 219 226 240 246 251 257 255 255 260 252 243 250 263 266 258 255 238 247 257 261 266 268